To NAV CANADA Home Page Login to a new session Search on AWWS site Disclaimer Vers la page française équivalente Tips FAQ What's new on the site To the Forecasts and Observations / NOTAM section To "File a Flight Plan" website Publications and other links Update of the User's profile FIC Telephone Numbers My Weather Data Folder Route Weather Data Regional Weather Data Local Weather Data To the Forecasts and Observations / NOTAM section
Request Generated 10/19/2018 at 16:22:23 UTC . Weather information available at that time is displayed.

METAR/TAF

AUPALUK/QC    

METAR CYLA 191600Z 00000KT 15SM FEW045 M08/M11 A2981 RMK SC1 SLP101=
METAR CYLA 191500Z 21003KT 15SM FEW044 M08/M12 A2982 RMK SC1 SLP103=
METAR CYLA 191400Z 23004KT 15SM FEW044 M09/M12 A2983 RMK SC1 SLP105=

CYLA - No TAF is issued for this station

Your time UTC time
Weather data provided by Environment Canada and NAV CANADA